Location: The Saddle
(36.8333°N, 80.3417°W)
Time: 19:17:38
(UTC-05:00)

A-11 Canister half - Pass Details

Date: 17 December 2023
Orbit: 1526 x 1682 km, 47.3° (Epoch: 25 February)

Event Time Altitude Azimuth Distance (km) Brightness Sun altitude
Rises 20:53:20 0° 299° (WNW) 4,936 12.3 -44.4°
Reaches altitude 10° 20:56:35 10° 303° (WNW) 3,946 11.6 -45.0°
Enters shadow 21:02:54 42° 320° (NW) 2,244 9.9 -46.3°
Maximum altitude 21:06:41 65° 24° (NNE) 1,801 - -47.0°
Drops below altitude 10° 21:16:34 10° 106° (ESE) 3,867 - -49.0°
Sets 21:19:42 0° 109° (ESE) 4,833 - -49.6°
